When you browse on this site, cookies collect data to enhance your experience and personalize the content and advertising you see.
Visit our Privacy Policy to learn more. By continuing to use the site, you agree to this use of cookies and data.
  • In Norway
  • List of Countries
  • For 7 days
  • Water Temperature
  • Satellite Maps
  • Weather Map
  • Weather Widgets
  • user-avatar
    Login

    Hourly Weather Melbourne

    Today, 25 March, Monday

    Time Temperature Precipitation Wind Pressure Humidity
    00:00 +23°C° 1 mm 7 mps 749 mmHg 66%
    01:00 +23°C° 1 mm 7 mps 749 mmHg 68%
    02:00 +22°C° 0.1 mm 7 mps 749 mmHg 65%
    03:00 +21°C° 0.1 mm 6 mps 749 mmHg 62%
    04:00 +19°C° 0 mm 5 mps 749 mmHg 60%
    05:00 +19°C° 0 mm 5 mps 750 mmHg 58%
    06:00 +17°C° 0 mm 6 mps 751 mmHg 56%
    07:00 +17°C° 0 mm 6 mps 751 mmHg 55%
    08:00 +17°C° 0 mm 7 mps 752 mmHg 49%
    09:00 +17°C° 0 mm 8 mps 752 mmHg 44%
    10:00 +16°C° 0 mm 7 mps 753 mmHg 41%
    11:00 +16°C° 0 mm 7 mps 753 mmHg 40%
    12:00 +16°C° 0 mm 8 mps 754 mmHg 39%
    13:00 +16°C° 0 mm 9 mps 754 mmHg 38%
    14:00 +16°C° 0 mm 8 mps 755 mmHg 36%
    15:00 +16°C° 0 mm 8 mps 755 mmHg 34%
    16:00 +17°C° 0 mm 8 mps 755 mmHg 35%
    17:00 +16°C° 0 mm 7 mps 756 mmHg 35%
    18:00 +16°C° 0 mm 7 mps 756 mmHg 35%
    19:00 +15°C° 0 mm 6 mps 757 mmHg 35%
    20:00 +15°C° 0 mm 6 mps 757 mmHg 38%
    21:00 +14°C° 0 mm 6 mps 758 mmHg 40%
    22:00 +13°C° 0 mm 6 mps 759 mmHg 44%
    23:00 +13°C° 0 mm 6 mps 759 mmHg 46%

    Tomorrow, 26 March, Tuesday

    Time Temperature Precipitation Wind Pressure Humidity
    00:00 +13°C° 0 mm 6 mps 759 mmHg 49%
    01:00 +11°C° 0 mm 6 mps 759 mmHg 51%
    02:00 +11°C° 0 mm 6 mps 759 mmHg 54%
    03:00 +11°C° 0 mm 6 mps 759 mmHg 56%
    04:00 +11°C° 0 mm 6 mps 760 mmHg 59%
    05:00 +12°C° 0 mm 5 mps 760 mmHg 61%
    06:00 +12°C° 0 mm 5 mps 761 mmHg 62%
    07:00 +12°C° 0 mm 5 mps 761 mmHg 64%
    08:00 +13°C° 0 mm 5 mps 761 mmHg 59%
    09:00 +15°C° 0 mm 6 mps 762 mmHg 55%
    10:00 +16°C° 0 mm 6 mps 762 mmHg 50%
    11:00 +17°C° 0 mm 5 mps 763 mmHg 48%
    12:00 +17°C° 0 mm 5 mps 763 mmHg 46%
    13:00 +19°C° 0 mm 5 mps 763 mmHg 44%
    14:00 +19°C° 0 mm 4 mps 763 mmHg 42%
    15:00 +20°C° 0 mm 4 mps 763 mmHg 41%
    16:00 +20°C° 0 mm 3 mps 763 mmHg 40%
    17:00 +19°C° 0 mm 3 mps 764 mmHg 45%
    18:00 +18°C° 0 mm 3 mps 764 mmHg 50%
    19:00 +17°C° 0 mm 2 mps 765 mmHg 55%
    20:00 +16°C° 0 mm 2 mps 765 mmHg 60%
    21:00 +15°C° 0 mm 2 mps 766 mmHg 64%
    22:00 +15°C° 0 mm 1 mps 766 mmHg 69%
    23:00 +14°C° 0 mm 1 mps 766 mmHg 71%

    Day after tomorrow, 27 March, Wednesday

    Time Temperature Precipitation Wind Pressure Humidity
    00:00 +14°C° 0 mm 1 mps 766 mmHg 73%
    01:00 +14°C° 0 mm 1 mps 766 mmHg 75%
    02:00 +13°C° 0 mm 1 mps 766 mmHg 76%
    03:00 +13°C° 0 mm 1 mps 766 mmHg 78%
    04:00 +13°C° 0 mm 1 mps 766 mmHg 79%
    05:00 +13°C° 0 mm 1 mps 767 mmHg 80%
    06:00 +13°C° 0 mm 1 mps 767 mmHg 81%
    07:00 +12°C° 0 mm 1 mps 767 mmHg 82%
    08:00 +15°C° 0 mm 1 mps 767 mmHg 72%
    09:00 +16°C° 0 mm 0 mps 767 mmHg 61%
    10:00 +18°C° 0 mm 0 mps 767 mmHg 51%
    11:00 +20°C° 0 mm 0 mps 766 mmHg 44%
    12:00 +24°C° 0 mm 1 mps 766 mmHg 38%
    13:00 +25°C° 0 mm 1 mps 765 mmHg 31%
    14:00 +25°C° 0 mm 1 mps 765 mmHg 30%
    15:00 +25°C° 0 mm 2 mps 764 mmHg 30%
    16:00 +26°C° 0 mm 3 mps 764 mmHg 30%
    17:00 +24°C° 0 mm 3 mps 764 mmHg 37%
    18:00 +21°C° 0 mm 3 mps 764 mmHg 44%
    19:00 +19°C° 0 mm 3 mps 764 mmHg 50%
    20:00 +18°C° 0 mm 2 mps 764 mmHg 55%
    21:00 +17°C° 0 mm 2 mps 764 mmHg 59%
    22:00 +18°C° 0 mm 1 mps 764 mmHg 63%
    23:00 +16°C° 0 mm 1 mps 764 mmHg 61%

    28 March, Thursday

    Time Temperature Precipitation Wind Pressure Humidity
    00:00 +16°C° 0 mm 1 mps 763 mmHg 60%
    01:00 +16°C° 0 mm 1 mps 763 mmHg 58%
    02:00 +16°C° 0 mm 1 mps 762 mmHg 54%
    03:00 +16°C° 0 mm 1 mps 762 mmHg 50%
    04:00 +16°C° 0 mm 2 mps 761 mmHg 46%
    05:00 +16°C° 0 mm 2 mps 761 mmHg 49%
    06:00 +16°C° 0 mm 3 mps 762 mmHg 51%
    07:00 +16°C° 0 mm 3 mps 762 mmHg 53%
    08:00 +18°C° 0 mm 4 mps 761 mmHg 53%
    09:00 +20°C° 0 mm 4 mps 761 mmHg 52%
    10:00 +22°C° 0 mm 4 mps 761 mmHg 52%
    11:00 +25°C° 0 mm 4 mps 760 mmHg 45%
    12:00 +26°C° 0 mm 4 mps 759 mmHg 39%
    13:00 +28°C° 0 mm 4 mps 759 mmHg 33%
    14:00 +28°C° 0 mm 4 mps 758 mmHg 31%
    15:00 +29°C° 0 mm 3 mps 757 mmHg 29%
    16:00 +29°C° 0 mm 3 mps 756 mmHg 27%
    17:00 +28°C° 0 mm 3 mps 756 mmHg 28%
    18:00 +26°C° 0 mm 3 mps 756 mmHg 29%
    19:00 +25°C° 0 mm 2 mps 756 mmHg 30%
    20:00 +23°C° 0 mm 2 mps 757 mmHg 35%
    21:00 +21°C° 0 mm 2 mps 757 mmHg 40%
    22:00 +20°C° 0 mm 1 mps 757 mmHg 45%
    23:00 +20°C° 0 mm 1 mps 757 mmHg 48%

    29 March, Friday

    Time Temperature Precipitation Wind Pressure Humidity
    00:00 +19°C° 0 mm 1 mps 756 mmHg 52%
    01:00 +16°C° 0 mm 0 mps 756 mmHg 56%
    02:00 +16°C° 0 mm 0 mps 756 mmHg 54%
    03:00 +18°C° 0 mm 1 mps 755 mmHg 53%
    04:00 +16°C° 0 mm 1 mps 755 mmHg 51%
    05:00 +16°C° 0 mm 1 mps 755 mmHg 53%
    06:00 +16°C° 0 mm 1 mps 755 mmHg 54%
    07:00 +16°C° 0 mm 2 mps 755 mmHg 55%
    08:00 +18°C° 0 mm 2 mps 755 mmHg 53%
    09:00 +20°C° 0 mm 3 mps 755 mmHg 50%
    10:00 +22°C° 0 mm 3 mps 756 mmHg 48%
    11:00 +20°C° 0.1 mm 4 mps 755 mmHg 55%
    12:00 +19°C° 0.1 mm 5 mps 755 mmHg 62%
    13:00 +17°C° 0.1 mm 6 mps 755 mmHg 69%
    14:00 +17°C° 0 mm 6 mps 755 mmHg 60%
    15:00 +17°C° 0 mm 6 mps 755 mmHg 51%
    16:00 +17°C° 0 mm 6 mps 755 mmHg 41%
    17:00 +16°C° 0 mm 6 mps 756 mmHg 45%
    18:00 +15°C° 0 mm 6 mps 757 mmHg 50%
    19:00 +14°C° 0 mm 6 mps 758 mmHg 54%
    20:00 +13°C° 0 mm 6 mps 758 mmHg 56%
    21:00 +12°C° 0 mm 5 mps 759 mmHg 58%
    22:00 +10°C° 0 mm 5 mps 760 mmHg 60%
    23:00 +10°C° 0 mm 5 mps 760 mmHg 61%

    30 March, Saturday

    Time Temperature Precipitation Wind Pressure Humidity
    00:00 +10°C° 0 mm 5 mps 760 mmHg 61%
    01:00 +9°C° 0 mm 5 mps 760 mmHg 62%
    02:00 +9°C° 0 mm 5 mps 760 mmHg 62%
    03:00 +9°C° 0 mm 5 mps 760 mmHg 63%
    04:00 +9°C° 0 mm 5 mps 760 mmHg 63%
    05:00 +10°C° 0 mm 4 mps 760 mmHg 63%
    06:00 +10°C° 0 mm 4 mps 761 mmHg 63%
    07:00 +8°C° 0 mm 4 mps 761 mmHg 63%
    08:00 +11°C° 0 mm 4 mps 761 mmHg 59%
    09:00 +12°C° 0 mm 4 mps 761 mmHg 54%
    10:00 +14°C° 0 mm 4 mps 762 mmHg 50%
    11:00 +14°C° 0 mm 4 mps 761 mmHg 48%
    12:00 +15°C° 0 mm 4 mps 761 mmHg 47%
    13:00 +15°C° 0 mm 4 mps 761 mmHg 45%
    14:00 +16°C° 0 mm 5 mps 760 mmHg 44%
    15:00 +17°C° 0 mm 5 mps 760 mmHg 42%
    16:00 +17°C° 0 mm 5 mps 760 mmHg 41%
    17:00 +17°C° 0 mm 5 mps 760 mmHg 45%
    18:00 +17°C° 0 mm 4 mps 760 mmHg 49%
    19:00 +15°C° 0 mm 4 mps 761 mmHg 53%
    20:00 +14°C° 0 mm 4 mps 761 mmHg 56%
    21:00 +14°C° 0 mm 4 mps 761 mmHg 59%
    22:00 +13°C° 0 mm 4 mps 762 mmHg 63%
    23:00 +13°C° 0 mm 4 mps 761 mmHg 65%
    Show more